STARLINK-35189

Last updated on Mon Oct 20 2025 00:02:05 GMT+0000 (Coordinated Universal Time)

1 65676U 25212A 25292.23546520 .00151707 00000+0 26783-2 0 9997 2 65676 53.1583 282.9013 0001228 93.4900 266.6250 15.49360046 5538
UTC large
Height (km)
Speed (km/s)
/
Latitude / Longitude
Inclination (degrees)
Orbital Period (minutes)
Azimuth
Elevation
Range (km)
Doppler Factor

Next 0 passes for location: London (51.5072 / 0.1276)

Sorry there are no passes over London.